Time,TemperatureF,DewpointF,PressureIn,WindDirection,WindDirectionDegrees,WindSpeedMPH,WindSpeedGustMPH,Humidity,HourlyPrecipIn,Conditions,Clouds,dailyrainin,SoftwareType,DateUTC
2013-04-01 00:01:00,50.3,48.6,29.94,SSW,213,0.0,1.0,94,0.15,,,0.00,WeatherCatV1.10B1784,2013-04-01 04:01:00,
2013-04-01 00:06:00,50.1,48.4,29.94,SSE,161,1.0,2.0,94,0.12,,,0.01,WeatherCatV1.10B1784,2013-04-01 04:06:00,
2013-04-01 00:11:00,49.9,48.2,29.94,NNE,23,1.0,1.0,94,0.06,,,0.01,WeatherCatV1.10B1784,2013-04-01 04:11:00,
2013-04-01 00:16:00,49.7,47.8,29.94,NNE,22,2.0,4.0,93,0.04,,,0.01,WeatherCatV1.10B1784,2013-04-01 04:16:00,
2013-04-01 00:21:00,49.7,48.0,29.94,SSW,210,1.0,1.0,94,0.00,,,0.01,WeatherCatV1.10B1784,2013-04-01 04:21:00,
2013-04-01 00:31:00,49.4,47.7,29.94,SSW,193,0.0,1.0,94,0.00,,,0.01,WeatherCatV1.10B1784,2013-04-01 04:31:00,
2013-04-01 00:36:00,49.3,47.6,29.94,East,84,0.0,3.0,94,0.00,,,0.01,WeatherCatV1.10B1784,2013-04-01 04:36:00,
2013-04-01 00:41:00,49.3,47.6,29.94,SSW,199,0.0,1.0,94,0.00,,,0.01,WeatherCatV1.10B1784,2013-04-01 04:41:00,
2013-04-01 00:51:00,49.1,47.7,29.95,South,177,2.0,2.0,95,0.00,,,0.01,WeatherCatV1.10B1784,2013-04-01 04:51:00,
2013-04-01 00:56:00,49.1,47.7,29.95,SSE,151,0.0,1.0,95,0.00,,,0.01,WeatherCatV1.10B1784,2013-04-01 04:56:00,
2013-04-01 01:01:00,49.0,47.3,29.95,SE,128,0.0,0.0,94,0.00,,,0.01,WeatherCatV1.10B1784,2013-04-01 05:01:00,
2013-04-01 01:06:00,49.0,47.3,29.95,South,178,1.0,1.0,94,0.00,,,0.01,WeatherCatV1.10B1784,2013-04-01 05:06:00,
2013-04-01 01:11:00,49.0,47.3,29.95,East,92,3.0,4.0,94,0.00,,,0.01,WeatherCatV1.10B1784,2013-04-01 05:11:00,
2013-04-01 01:16:00,49.0,47.3,29.95,SSE,162,0.0,2.0,94,0.00,,,0.01,WeatherCatV1.10B1784,2013-04-01 05:16:00,
2013-04-01 01:21:00,49.0,47.3,29.95,ESE,123,0.0,0.0,94,0.00,,,0.01,WeatherCatV1.10B1784,2013-04-01 05:21:00,
2013-04-01 01:26:00,48.9,47.2,29.95,East,95,0.0,0.0,94,0.00,,,0.01,WeatherCatV1.10B1784,2013-04-01 05:26:00,
2013-04-01 01:31:00,48.9,47.5,29.95,West,274,0.0,1.0,95,0.00,,,0.01,WeatherCatV1.10B1784,2013-04-01 05:31:00,
2013-04-01 01:36:00,48.8,47.2,29.95,ESE,115,0.0,3.0,94,0.00,,,0.01,WeatherCatV1.10B1784,2013-04-01 05:36:00,
2013-04-01 01:41:00,48.8,46.9,29.95,SW,215,1.0,2.0,93,0.00,,,0.01,WeatherCatV1.10B1784,2013-04-01 05:41:00,
2013-04-01 01:46:00,48.8,46.9,29.95,SW,215,0.0,1.0,93,0.00,,,0.01,WeatherCatV1.10B1784,2013-04-01 05:46:00,
2013-04-01 01:51:00,48.8,46.9,29.95,West,270,0.0,5.0,93,0.00,,,0.01,WeatherCatV1.10B1784,2013-04-01 05:51:00,
2013-04-01 01:56:00,48.8,46.9,29.95,North,350,2.0,2.0,93,0.00,,,0.01,WeatherCatV1.10B1784,2013-04-01 05:56:00,
2013-04-01 02:06:00,48.7,47.0,29.95,South,178,2.0,2.0,94,0.00,,,0.01,WeatherCatV1.10B1784,2013-04-01 06:06:00,
2013-04-01 02:11:00,48.6,46.4,29.94,South,174,1.0,2.0,92,0.00,,,0.01,WeatherCatV1.10B1784,2013-04-01 06:11:00,
2013-04-01 02:16:00,48.5,46.6,29.94,SW,215,1.0,3.0,93,0.00,,,0.01,WeatherCatV1.10B1784,2013-04-01 06:16:00,
2013-04-01 02:21:00,48.5,46.3,29.94,SSW,202,1.0,2.0,92,0.00,,,0.01,WeatherCatV1.10B1784,2013-04-01 06:21:00,
2013-04-01 02:26:00,48.3,46.1,29.94,West,260,1.0,2.0,92,0.00,,,0.01,WeatherCatV1.10B1784,2013-04-01 06:26:00,
2013-04-01 02:31:00,48.1,46.2,29.93,SW,221,1.0,1.0,93,0.00,,,0.01,WeatherCatV1.10B1784,2013-04-01 06:31:00,
2013-04-01 02:36:00,47.9,45.7,29.93,North,11,0.0,3.0,92,0.00,,,0.01,WeatherCatV1.10B1784,2013-04-01 06:36:00,
2013-04-01 02:41:00,47.7,45.2,29.94,West,281,3.0,4.0,91,0.00,,,0.01,WeatherCatV1.10B1784,2013-04-01 06:41:00,
2013-04-01 02:46:00,47.7,45.2,29.93,SW,214,0.0,2.0,91,0.00,,,0.01,WeatherCatV1.10B1784,2013-04-01 06:46:00,
2013-04-01 02:51:00,47.5,45.0,29.93,SE,124,2.0,2.0,91,0.00,,,0.01,WeatherCatV1.10B1784,2013-04-01 06:51:00,
2013-04-01 02:56:00,47.4,44.9,29.93,SE,146,0.0,1.0,91,0.00,,,0.01,WeatherCatV1.10B1784,2013-04-01 06:56:00,
2013-04-01 03:01:00,47.2,44.7,29.93,WNW,298,0.0,1.0,91,0.00,,,0.01,WeatherCatV1.10B1784,2013-04-01 07:01:00,
2013-04-01 03:06:00,47.0,44.5,29.94,SSW,211,0.0,0.0,91,0.00,,,0.01,WeatherCatV1.10B1784,2013-04-01 07:06:00,
2013-04-01 03:11:00,46.9,44.7,29.94,South,169,0.0,0.0,92,0.00,,,0.01,WeatherCatV1.10B1784,2013-04-01 07:11:00,
2013-04-01 03:16:00,46.7,44.5,29.94,ESE,123,0.0,2.0,92,0.00,,,0.01,WeatherCatV1.10B1784,2013-04-01 07:16:00,
2013-04-01 03:21:00,46.5,44.3,29.94,East,95,0.0,1.0,92,0.00,,,0.01,WeatherCatV1.10B1784,2013-04-01 07:21:00,
2013-04-01 03:26:00,46.3,44.1,29.94,East,79,0.0,1.0,92,0.00,,,0.01,WeatherCatV1.10B1784,2013-04-01 07:26:00,
2013-04-01 03:41:00,46.3,44.4,29.94,East,98,2.0,2.0,93,0.00,,,0.01,WeatherCatV1.10B1784,2013-04-01 07:41:00,
2013-04-01 03:56:00,46.3,44.4,29.94,ENE,74,1.0,2.0,93,0.00,,,0.01,WeatherCatV1.10B1784,2013-04-01 07:56:00,
2013-04-01 04:01:00,46.2,44.3,29.94,NE,42,0.0,2.0,93,0.00,,,0.01,WeatherCatV1.10B1784,2013-04-01 08:01:00,
2013-04-01 04:06:00,46.0,44.4,29.94,East,81,2.0,3.0,94,0.00,,,0.01,WeatherCatV1.10B1784,2013-04-01 08:06:00,
2013-04-01 04:11:00,46.0,44.4,29.94,East,85,0.0,1.0,94,0.00,,,0.01,WeatherCatV1.10B1784,2013-04-01 08:11:00,
2013-04-01 04:21:00,45.7,44.3,29.93,NE,53,4.0,4.0,95,0.00,,,0.01,WeatherCatV1.10B1784,2013-04-01 08:21:00,
2013-04-01 04:31:00,45.7,44.3,29.93,East,84,2.0,3.0,95,0.00,,,0.01,WeatherCatV1.10B1784,2013-04-01 08:31:00,
2013-04-01 04:36:00,45.6,44.3,29.93,ESE,102,0.0,2.0,95,0.00,,,0.01,WeatherCatV1.10B1784,2013-04-01 08:36:00,
2013-04-01 04:41:00,45.3,44.0,29.94,NE,50,2.0,3.0,95,0.00,,,0.01,WeatherCatV1.10B1784,2013-04-01 08:41:00,
2013-04-01 04:46:00,45.3,44.2,29.94,ENE,67,0.0,0.0,96,0.00,,,0.01,WeatherCatV1.10B1784,2013-04-01 08:46:00,
2013-04-01 04:51:00,45.4,44.3,29.94,East,88,0.0,0.0,96,0.00,,,0.01,WeatherCatV1.10B1784,2013-04-01 08:51:00,
2013-04-01 04:56:00,45.4,44.3,29.94,East,88,0.0,0.0,96,0.00,,,0.01,WeatherCatV1.10B1784,2013-04-01 08:56:00,
2013-04-01 05:01:00,45.3,44.0,29.94,SSW,209,0.0,0.0,95,0.00,,,0.01,WeatherCatV1.10B1784,2013-04-01 09:01:00,
2013-04-01 05:06:00,45.3,44.2,29.94,SE,142,0.0,0.0,96,0.00,,,0.01,WeatherCatV1.10B1784,2013-04-01 09:06:00,
2013-04-01 05:11:00,45.3,44.2,29.94,South,189,0.0,2.0,96,0.00,,,0.01,WeatherCatV1.10B1784,2013-04-01 09:11:00,
2013-04-01 05:16:00,45.2,44.1,29.94,ENE,71,0.0,3.0,96,0.00,,,0.01,WeatherCatV1.10B1784,2013-04-01 09:16:00,
2013-04-01 05:26:00,45.0,43.9,29.94,SE,142,0.0,1.0,96,0.00,,,0.01,WeatherCatV1.10B1784,2013-04-01 09:26:00,
2013-04-01 05:36:00,45.0,43.9,29.95,South,176,1.0,1.0,96,0.00,,,0.01,WeatherCatV1.10B1784,2013-04-01 09:36:00,
2013-04-01 05:41:00,45.0,43.9,29.95,South,189,0.0,0.0,96,0.00,,,0.01,WeatherCatV1.10B1784,2013-04-01 09:41:00,
2013-04-01 05:46:00,44.9,43.8,29.95,South,189,0.0,0.0,96,0.00,,,0.01,WeatherCatV1.10B1784,2013-04-01 09:46:00,
2013-04-01 05:51:00,44.7,43.4,29.95,South,189,0.0,0.0,95,0.00,,,0.01,WeatherCatV1.10B1784,2013-04-01 09:51:00,
2013-04-01 05:56:00,44.6,43.3,29.95,South,189,0.0,0.0,95,0.00,,,0.01,WeatherCatV1.10B1784,2013-04-01 09:56:00,
2013-04-01 06:01:00,44.4,43.3,29.95,ESE,116,0.0,2.0,96,0.00,,,0.01,WeatherCatV1.10B1784,2013-04-01 10:01:00,
2013-04-01 06:06:00,44.3,43.2,29.95,East,88,1.0,1.0,96,0.00,,,0.01,WeatherCatV1.10B1784,2013-04-01 10:06:00,
2013-04-01 06:16:00,44.3,43.2,29.95,ENE,59,0.0,0.0,96,0.00,,,0.01,WeatherCatV1.10B1784,2013-04-01 10:16:00,
2013-04-01 06:21:00,44.0,42.7,29.96,ENE,59,0.0,1.0,95,0.00,,,0.01,WeatherCatV1.10B1784,2013-04-01 10:21:00,
2013-04-01 06:26:00,43.8,42.7,29.95,ENE,59,0.0,0.0,96,0.00,,,0.01,WeatherCatV1.10B1784,2013-04-01 10:26:00,
2013-04-01 06:31:00,43.4,42.1,29.96,ENE,59,0.0,1.0,95,0.00,,,0.01,WeatherCatV1.10B1784,2013-04-01 10:31:00,
2013-04-01 06:36:00,43.1,41.8,29.96,ENE,59,0.0,1.0,95,0.00,,,0.01,WeatherCatV1.10B1784,2013-04-01 10:36:00,
2013-04-01 06:41:00,42.9,41.6,29.96,NE,51,0.0,2.0,95,0.00,,,0.01,WeatherCatV1.10B1784,2013-04-01 10:41:00,
2013-04-01 06:56:00,42.6,41.5,29.96,NE,46,2.0,2.0,96,0.00,,,0.01,WeatherCatV1.10B1784,2013-04-01 10:56:00,
2013-04-01 07:01:00,42.5,41.4,29.97,NE,46,0.0,2.0,96,0.00,,,0.01,WeatherCatV1.10B1784,2013-04-01 11:01:00,
2013-04-01 07:06:00,42.5,41.4,29.97,NE,46,1.0,2.0,96,0.00,,,0.01,WeatherCatV1.10B1784,2013-04-01 11:06:00,
2013-04-01 07:11:00,42.4,41.3,29.97,NE,46,0.0,2.0,96,0.00,,,0.01,WeatherCatV1.10B1784,2013-04-01 11:11:00,
2013-04-01 07:16:00,42.3,41.2,29.97,NE,46,0.0,1.0,96,0.00,,,0.01,WeatherCatV1.10B1784,2013-04-01 11:16:00,
2013-04-01 07:31:00,42.0,40.9,29.98,NE,46,0.0,0.0,96,0.00,,,0.01,WeatherCatV1.10B1784,2013-04-01 11:31:00,
2013-04-01 07:36:00,41.8,40.7,29.98,NE,46,0.0,0.0,96,0.00,,,0.01,WeatherCatV1.10B1784,2013-04-01 11:36:00,
2013-04-01 07:41:00,41.7,40.6,29.99,NE,46,0.0,0.0,96,0.00,,,0.01,WeatherCatV1.10B1784,2013-04-01 11:41:00,
2013-04-01 07:51:00,41.6,40.5,29.99,NE,46,0.0,0.0,96,0.00,,,0.01,WeatherCatV1.10B1784,2013-04-01 11:51:00,
2013-04-01 07:56:00,41.6,40.5,29.99,NE,46,0.0,0.0,96,0.00,,,0.01,WeatherCatV1.10B1784,2013-04-01 11:56:00,
2013-04-01 08:01:00,41.6,40.5,30.00,NE,46,0.0,0.0,96,0.00,,,0.01,WeatherCatV1.10B1784,2013-04-01 12:01:00,
2013-04-01 08:06:00,41.5,40.4,30.00,NE,42,0.0,1.0,96,0.00,,,0.01,WeatherCatV1.10B1784,2013-04-01 12:06:00,
2013-04-01 08:16:00,41.3,40.2,30.00,NE,42,0.0,0.0,96,0.00,,,0.01,WeatherCatV1.10B1784,2013-04-01 12:16:00,
2013-04-01 08:21:00,41.3,40.5,30.00,NE,42,0.0,0.0,97,0.00,,,0.01,WeatherCatV1.10B1784,2013-04-01 12:21:00,
2013-04-01 08:26:00,41.3,40.5,30.00,NE,42,0.0,0.0,97,0.00,,,0.01,WeatherCatV1.10B1784,2013-04-01 12:26:00,
2013-04-01 08:41:00,41.6,40.8,30.00,NE,42,0.0,0.0,97,0.00,,,0.01,WeatherCatV1.10B1784,2013-04-01 12:41:00,
2013-04-01 08:46:00,41.7,40.9,30.00,NE,42,0.0,0.0,97,0.00,,,0.01,WeatherCatV1.10B1784,2013-04-01 12:46:00,
2013-04-01 08:51:00,41.9,41.1,30.00,NE,42,0.0,0.0,97,0.00,,,0.01,WeatherCatV1.10B1784,2013-04-01 12:51:00,
2013-04-01 08:56:00,42.1,41.6,30.00,NE,35,0.0,1.0,98,0.00,,,0.01,WeatherCatV1.10B1784,2013-04-01 12:56:00,
2013-04-01 09:01:00,42.3,41.8,30.00,North,0,0.0,0.0,98,0.00,,,0.01,WeatherCatV1.10B1784,2013-04-01 13:01:00,
2013-04-01 09:06:00,42.4,41.9,30.00,North,0,0.0,0.0,98,0.00,,,0.01,WeatherCatV1.10B1784,2013-04-01 13:06:00,
2013-04-01 09:11:00,42.6,42.1,30.00,North,0,0.0,0.0,98,0.00,,,0.01,WeatherCatV1.10B1784,2013-04-01 13:11:00,
2013-04-01 09:16:00,42.7,42.2,30.00,West,277,0.0,1.0,98,0.00,,,0.01,WeatherCatV1.10B1784,2013-04-01 13:16:00,
2013-04-01 09:21:00,42.9,42.4,30.00,West,277,0.0,0.0,98,0.00,,,0.01,WeatherCatV1.10B1784,2013-04-01 13:21:00,
2013-04-01 09:26:00,43.3,42.8,30.00,West,277,0.0,0.0,98,0.00,,,0.01,WeatherCatV1.10B1784,2013-04-01 13:26:00,
2013-04-01 09:36:00,44.7,44.2,30.00,West,277,1.0,2.0,98,0.00,,,0.01,WeatherCatV1.10B1784,2013-04-01 13:36:00,
2013-04-01 09:46:00,46.0,45.5,30.01,West,277,0.0,0.0,98,0.00,,,0.01,WeatherCatV1.10B1784,2013-04-01 13:46:00,
2013-04-01 09:51:00,47.0,46.2,30.01,West,277,0.0,1.0,97,0.00,,,0.01,WeatherCatV1.10B1784,2013-04-01 13:51:00,
2013-04-01 09:56:00,47.8,46.2,30.01,West,277,0.0,0.0,94,0.00,,,0.01,WeatherCatV1.10B1784,2013-04-01 13:56:00,
2013-04-01 10:01:00,48.5,46.0,30.01,WSW,246,0.0,2.0,91,0.00,,,0.01,WeatherCatV1.10B1784,2013-04-01 14:01:00,
2013-04-01 10:11:00,49.7,43.1,30.01,East,93,3.0,5.0,78,0.00,,,0.01,WeatherCatV1.10B1784,2013-04-01 14:11:00,
2013-04-01 10:16:00,50.2,42.9,30.01,North,0,2.0,2.0,76,0.00,,,0.01,WeatherCatV1.10B1784,2013-04-01 14:16:00,
2013-04-01 10:21:00,50.8,43.2,30.01,NNE,32,3.0,5.0,75,0.00,,,0.01,WeatherCatV1.10B1784,2013-04-01 14:21:00,
2013-04-01 10:26:00,51.5,43.1,30.01,ENE,58,1.0,2.0,73,0.00,,,0.01,WeatherCatV1.10B1784,2013-04-01 14:26:00,
2013-04-01 10:36:00,52.3,42.1,30.01,SW,234,0.0,3.0,68,0.00,,,0.01,WeatherCatV1.10B1784,2013-04-01 14:36:00,
2013-04-01 10:46:00,53.1,40.0,30.01,East,101,1.0,1.0,61,0.00,,,0.01,WeatherCatV1.10B1784,2013-04-01 14:46:00,
2013-04-01 10:51:00,53.4,40.7,30.01,SW,219,0.0,5.0,62,0.00,,,0.01,WeatherCatV1.10B1784,2013-04-01 14:51:00,
2013-04-01 10:56:00,53.7,42.2,30.01,NNE,33,0.0,1.0,65,0.00,,,0.01,WeatherCatV1.10B1784,2013-04-01 14:56:00,
2013-04-01 11:06:00,54.3,42.4,30.01,SSW,211,0.0,2.0,64,0.00,,,0.01,WeatherCatV1.10B1784,2013-04-01 15:06:00,
2013-04-01 11:11:00,54.9,42.1,30.02,South,173,1.0,3.0,62,0.00,,,0.01,WeatherCatV1.10B1784,2013-04-01 15:11:00,
2013-04-01 11:16:00,55.1,42.7,30.02,SSW,202,0.0,4.0,63,0.00,,,0.01,WeatherCatV1.10B1784,2013-04-01 15:16:00,
2013-04-01 11:31:00,55.7,41.6,30.01,SE,132,0.0,3.0,59,0.00,,,0.01,WeatherCatV1.10B1784,2013-04-01 15:31:00,
2013-04-01 11:36:00,55.6,41.1,30.01,WSW,243,3.0,5.0,58,0.00,,,0.01,WeatherCatV1.10B1784,2013-04-01 15:36:00,
2013-04-01 11:41:00,55.6,41.1,30.02,South,171,0.0,5.0,58,0.00,,,0.01,WeatherCatV1.10B1784,2013-04-01 15:41:00,
2013-04-01 11:51:00,56.0,41.0,30.02,SSE,147,1.0,5.0,57,0.00,,,0.01,WeatherCatV1.10B1784,2013-04-01 15:51:00,
2013-04-01 11:56:00,56.3,40.8,30.01,SW,225,7.0,8.0,56,0.00,,,0.01,WeatherCatV1.10B1784,2013-04-01 15:56:00,
2013-04-01 12:06:00,56.6,42.9,30.01,SSW,213,4.0,7.0,60,0.00,,,0.01,WeatherCatV1.10B1784,2013-04-01 16:06:00,
2013-04-01 12:16:00,56.6,42.4,30.02,South,180,3.0,9.0,59,0.00,,,0.01,WeatherCatV1.10B1784,2013-04-01 16:16:00,
2013-04-01 12:26:00,57.5,42.8,30.02,West,259,0.0,2.0,58,0.00,,,0.01,WeatherCatV1.10B1784,2013-04-01 16:26:00,
2013-04-01 12:36:00,57.9,41.8,30.01,NE,53,2.0,10.0,55,0.00,,,0.01,WeatherCatV1.10B1784,2013-04-01 16:36:00,
2013-04-01 12:46:00,58.5,43.3,30.01,East,99,1.0,3.0,57,0.00,,,0.01,WeatherCatV1.10B1784,2013-04-01 16:46:00,
2013-04-01 12:56:00,58.4,41.3,30.01,SSE,168,1.0,6.0,53,0.00,,,0.01,WeatherCatV1.10B1784,2013-04-01 16:56:00,
2013-04-01 13:06:00,58.4,41.8,30.01,SE,142,2.0,3.0,54,0.00,,,0.01,WeatherCatV1.10B1784,2013-04-01 17:06:00,
2013-04-01 13:11:00,58.7,41.6,30.01,NNE,22,0.0,9.0,53,0.00,,,0.01,WeatherCatV1.10B1784,2013-04-01 17:11:00,
2013-04-01 13:16:00,58.7,42.1,30.01,South,175,2.0,4.0,54,0.00,,,0.01,WeatherCatV1.10B1784,2013-04-01 17:16:00,
2013-04-01 13:21:00,58.7,43.0,30.01,SE,131,3.0,4.0,56,0.00,,,0.01,WeatherCatV1.10B1784,2013-04-01 17:21:00,
2013-04-01 13:31:00,58.2,43.0,30.01,WNW,296,1.0,3.0,57,0.00,,,0.01,WeatherCatV1.10B1784,2013-04-01 17:31:00,
2013-04-01 13:36:00,58.6,42.0,30.01,NNW,343,2.0,10.0,54,0.00,,,0.01,WeatherCatV1.10B1784,2013-04-01 17:36:00,
2013-04-01 13:41:00,58.8,41.2,30.01,NW,321,1.0,3.0,52,0.00,,,0.01,WeatherCatV1.10B1784,2013-04-01 17:41:00,
2013-04-01 13:46:00,58.7,40.6,30.01,South,186,4.0,7.0,51,0.00,,,0.01,WeatherCatV1.10B1784,2013-04-01 17:46:00,
2013-04-01 13:56:00,58.9,38.7,30.01,South,174,3.0,7.0,47,0.00,,,0.01,WeatherCatV1.10B1784,2013-04-01 17:56:00,
2013-04-01 14:01:00,59.1,40.0,30.01,SSW,196,4.0,8.0,49,0.00,,,0.01,WeatherCatV1.10B1784,2013-04-01 18:01:00,
2013-04-01 14:11:00,58.9,39.2,30.01,South,171,2.0,9.0,48,0.00,,,0.01,WeatherCatV1.10B1784,2013-04-01 18:11:00,
2013-04-01 14:21:00,58.9,38.2,30.01,South,185,7.0,7.0,46,0.00,,,0.01,WeatherCatV1.10B1784,2013-04-01 18:21:00,
2013-04-01 14:26:00,58.2,38.1,30.01,SSE,159,3.0,10.0,47,0.00,,,0.01,WeatherCatV1.10B1784,2013-04-01 18:26:00,
2013-04-01 14:36:00,58.3,39.7,30.01,WNW,286,0.0,3.0,50,0.00,,,0.01,WeatherCatV1.10B1784,2013-04-01 18:36:00,
2013-04-01 14:41:00,58.6,40.0,30.00,SSW,201,3.0,4.0,50,0.00,,,0.01,WeatherCatV1.10B1784,2013-04-01 18:41:00,
2013-04-01 14:46:00,58.6,39.0,30.00,SW,236,5.0,8.0,48,0.00,,,0.01,WeatherCatV1.10B1784,2013-04-01 18:46:00,
2013-04-01 14:51:00,58.4,39.3,30.01,SSW,194,3.0,7.0,49,0.00,,,0.01,WeatherCatV1.10B1784,2013-04-01 18:51:00,
2013-04-01 14:56:00,58.2,39.6,30.00,North,351,4.0,6.0,50,0.00,,,0.01,WeatherCatV1.10B1784,2013-04-01 18:56:00,
2013-04-01 15:06:00,58.2,40.2,30.00,SSW,192,1.0,6.0,51,0.00,,,0.01,WeatherCatV1.10B1784,2013-04-01 19:06:00,
2013-04-01 15:16:00,59.0,40.4,30.00,SW,215,4.0,7.0,50,0.00,,,0.01,WeatherCatV1.10B1784,2013-04-01 19:16:00,
2013-04-01 15:21:00,59.0,39.9,30.00,SSW,199,4.0,12.0,49,0.00,,,0.01,WeatherCatV1.10B1784,2013-04-01 19:21:00,
2013-04-01 15:31:00,57.9,39.9,30.00,South,171,1.0,10.0,51,0.00,,,0.01,WeatherCatV1.10B1784,2013-04-01 19:31:00,
2013-04-01 15:41:00,57.1,39.6,30.00,SW,235,0.0,8.0,52,0.00,,,0.01,WeatherCatV1.10B1784,2013-04-01 19:41:00,
2013-04-01 15:46:00,57.0,41.0,30.00,SW,230,2.0,4.0,55,0.00,,,0.01,WeatherCatV1.10B1784,2013-04-01 19:46:00,
2013-04-01 15:51:00,57.8,41.3,30.00,SSW,200,7.0,9.0,54,0.00,,,0.01,WeatherCatV1.10B1784,2013-04-01 19:51:00,
2013-04-01 15:56:00,58.0,40.5,30.00,SW,226,5.0,7.0,52,0.00,,,0.01,WeatherCatV1.10B1784,2013-04-01 19:56:00,
2013-04-01 16:01:00,57.7,40.2,30.00,SW,217,3.0,6.0,52,0.00,,,0.01,WeatherCatV1.10B1784,2013-04-01 20:01:00,
2013-04-01 16:06:00,57.4,40.9,30.00,SSW,210,3.0,5.0,54,0.00,,,0.01,WeatherCatV1.10B1784,2013-04-01 20:06:00,
2013-04-01 16:26:00,55.8,39.9,30.00,SSW,196,0.0,1.0,55,0.00,,,0.01,WeatherCatV1.10B1784,2013-04-01 20:26:00,
2013-04-01 16:36:00,55.7,40.7,30.00,SSE,161,1.0,2.0,57,0.00,,,0.01,WeatherCatV1.10B1784,2013-04-01 20:36:00,
2013-04-01 16:41:00,55.5,41.0,30.00,SSE,150,0.0,5.0,58,0.00,,,0.01,WeatherCatV1.10B1784,2013-04-01 20:41:00,
2013-04-01 16:46:00,55.3,41.2,30.00,WSW,247,3.0,5.0,59,0.00,,,0.01,WeatherCatV1.10B1784,2013-04-01 20:46:00,
2013-04-01 16:51:00,55.1,41.5,30.00,South,184,1.0,6.0,60,0.00,,,0.01,WeatherCatV1.10B1784,2013-04-01 20:51:00,
2013-04-01 16:56:00,54.8,42.4,30.00,South,172,2.0,6.0,63,0.00,,,0.01,WeatherCatV1.10B1784,2013-04-01 20:56:00,
2013-04-01 17:06:00,53.8,42.7,30.00,SSE,163,0.0,2.0,66,0.00,,,0.01,WeatherCatV1.10B1784,2013-04-01 21:06:00,
2013-04-01 17:11:00,53.6,43.3,30.00,SSE,165,1.0,1.0,68,0.00,,,0.01,WeatherCatV1.10B1784,2013-04-01 21:11:00,
2013-04-01 17:21:00,53.2,43.3,30.00,SE,135,0.0,8.0,69,0.00,,,0.01,WeatherCatV1.10B1784,2013-04-01 21:21:00,
2013-04-01 17:31:00,53.2,43.3,30.00,East,92,1.0,2.0,69,0.00,,,0.01,WeatherCatV1.10B1784,2013-04-01 21:31:00,
2013-04-01 17:36:00,53.4,43.9,30.00,South,174,1.0,3.0,70,0.00,,,0.01,WeatherCatV1.10B1784,2013-04-01 21:36:00,
2013-04-01 17:41:00,53.9,44.0,30.00,SSW,200,2.0,4.0,69,0.00,,,0.01,WeatherCatV1.10B1784,2013-04-01 21:41:00,
2013-04-01 17:51:00,54.8,44.1,30.00,SSW,212,0.0,3.0,67,0.00,,,0.01,WeatherCatV1.10B1784,2013-04-01 21:51:00,
2013-04-01 18:01:00,54.6,43.5,30.00,SE,144,0.0,2.0,66,0.00,,,0.01,WeatherCatV1.10B1784,2013-04-01 22:01:00,
2013-04-01 18:06:00,54.6,43.1,30.00,South,178,0.0,5.0,65,0.00,,,0.01,WeatherCatV1.10B1784,2013-04-01 22:06:00,
2013-04-01 18:11:00,54.7,43.2,30.00,South,177,2.0,4.0,65,0.00,,,0.01,WeatherCatV1.10B1784,2013-04-01 22:11:00,
2013-04-01 18:21:00,55.1,42.7,30.00,South,190,0.0,3.0,63,0.00,,,0.01,WeatherCatV1.10B1784,2013-04-01 22:21:00,
2013-04-01 18:26:00,55.2,42.4,30.00,South,174,2.0,5.0,62,0.00,,,0.01,WeatherCatV1.10B1784,2013-04-01 22:26:00,
2013-04-01 18:36:00,55.3,42.5,30.00,SW,221,1.0,5.0,62,0.00,,,0.01,WeatherCatV1.10B1784,2013-04-01 22:36:00,
2013-04-01 18:56:00,54.8,42.0,30.00,South,169,1.0,2.0,62,0.00,,,0.01,WeatherCatV1.10B1784,2013-04-01 22:56:00,
2013-04-01 19:01:00,54.6,42.3,30.00,South,173,0.0,3.0,63,0.00,,,0.01,WeatherCatV1.10B1784,2013-04-01 23:01:00,
2013-04-01 19:06:00,54.4,42.1,30.00,WSW,244,3.0,7.0,63,0.00,,,0.01,WeatherCatV1.10B1784,2013-04-01 23:06:00,
2013-04-01 19:11:00,54.1,41.4,30.00,SSE,165,0.0,3.0,62,0.00,,,0.01,WeatherCatV1.10B1784,2013-04-01 23:11:00,
2013-04-01 19:16:00,54.0,41.7,30.01,South,175,2.0,3.0,63,0.00,,,0.01,WeatherCatV1.10B1784,2013-04-01 23:16:00,
2013-04-01 19:21:00,53.7,41.4,30.01,ESE,109,0.0,0.0,63,0.00,,,0.01,WeatherCatV1.10B1784,2013-04-01 23:21:00,
2013-04-01 19:31:00,53.3,41.4,30.01,NNE,28,0.0,0.0,64,0.00,,,0.01,WeatherCatV1.10B1784,2013-04-01 23:31:00,
2013-04-01 19:41:00,53.0,41.6,30.01,ESE,115,3.0,3.0,65,0.00,,,0.01,WeatherCatV1.10B1784,2013-04-01 23:41:00,
2013-04-01 19:46:00,52.8,41.0,30.01,East,86,0.0,0.0,64,0.00,,,0.01,WeatherCatV1.10B1784,2013-04-01 23:46:00,
2013-04-01 19:51:00,52.6,40.8,30.01,NNW,338,0.0,0.0,64,0.00,,,0.01,WeatherCatV1.10B1784,2013-04-01 23:51:00,
2013-04-01 19:56:00,52.5,41.1,30.01,ENE,70,2.0,2.0,65,0.00,,,0.01,WeatherCatV1.10B1784,2013-04-01 23:56:00,
2013-04-01 20:01:00,52.3,41.3,30.01,East,95,0.0,0.0,66,0.00,,,0.01,WeatherCatV1.10B1784,2013-04-02 00:01:00,
2013-04-01 20:06:00,52.1,40.7,30.01,ESE,109,0.0,2.0,65,0.00,,,0.01,WeatherCatV1.10B1784,2013-04-02 00:06:00,
2013-04-01 20:10:00,52.0,41.4,30.01,East,86,0.0,0.0,67,0.00,,,0.00,WeatherCatV1.10B1784,2013-04-02 00:10:00,
2013-04-01 20:11:00,51.9,41.3,30.01,SE,141,0.0,0.0,67,0.00,,,0.01,WeatherCatV1.10B1784,2013-04-02 00:11:00,
2013-04-01 20:15:00,51.8,40.8,30.01,SE,126,0.0,0.0,66,0.00,,,0.00,WeatherCatV1.10B1784,2013-04-02 00:15:00,
2013-04-01 20:20:00,51.7,40.3,30.01,SSW,192,0.0,1.0,65,0.00,,,0.00,WeatherCatV1.10B1784,2013-04-02 00:20:00,
2013-04-01 20:25:00,51.5,40.1,30.01,SSE,154,0.0,1.0,65,0.00,,,0.00,WeatherCatV1.10B1784,2013-04-02 00:25:00,
2013-04-01 20:30:00,51.4,40.8,30.01,East,87,0.0,1.0,67,0.00,,,0.00,WeatherCatV1.10B1784,2013-04-02 00:30:00,
2013-04-01 20:35:00,51.2,40.2,30.01,East,96,0.0,0.0,66,0.00,,,0.00,WeatherCatV1.10B1784,2013-04-02 00:35:00,
2013-04-01 20:40:00,51.1,41.3,30.01,ESE,112,0.0,0.0,69,0.00,,,0.00,WeatherCatV1.10B1784,2013-04-02 00:40:00,
2013-04-01 20:45:00,50.8,40.2,30.01,ESE,116,0.0,0.0,67,0.00,,,0.00,WeatherCatV1.10B1784,2013-04-02 00:45:00,
2013-04-01 20:50:00,50.7,40.1,30.01,ESE,117,0.0,1.0,67,0.00,,,0.00,WeatherCatV1.10B1784,2013-04-02 00:50:00,
2013-04-01 20:55:00,50.6,39.3,30.02,ESE,103,0.0,0.0,65,0.00,,,0.00,WeatherCatV1.10B1784,2013-04-02 00:55:00,
2013-04-01 21:00:00,50.6,39.7,30.02,East,87,0.0,1.0,66,0.00,,,0.00,WeatherCatV1.10B1784,2013-04-02 01:00:00,
2013-04-01 21:05:00,50.6,40.1,30.02,East,87,0.0,0.0,67,0.00,,,0.00,WeatherCatV1.10B1784,2013-04-02 01:05:00,
2013-04-01 21:10:00,50.5,40.0,30.02,ENE,76,0.0,1.0,67,0.00,,,0.00,WeatherCatV1.10B1784,2013-04-02 01:10:00,
2013-04-01 21:15:00,50.4,39.5,30.02,NE,42,0.0,0.0,66,0.00,,,0.00,WeatherCatV1.10B1784,2013-04-02 01:15:00,
2013-04-01 21:20:00,50.3,39.8,30.02,NNE,29,0.0,0.0,67,0.00,,,0.00,WeatherCatV1.10B1784,2013-04-02 01:20:00,
2013-04-01 21:25:00,50.2,39.3,30.02,NNE,28,0.0,1.0,66,0.00,,,0.00,WeatherCatV1.10B1784,2013-04-02 01:25:00,
2013-04-01 21:30:00,50.2,38.5,30.02,North,4,0.0,1.0,64,0.00,,,0.00,WeatherCatV1.10B1784,2013-04-02 01:30:00,
2013-04-01 21:35:00,50.2,38.1,30.02,WNW,290,0.0,2.0,63,0.00,,,0.00,WeatherCatV1.10B1784,2013-04-02 01:35:00,
2013-04-01 21:40:00,50.3,37.8,30.03,West,276,0.0,2.0,62,0.00,,,0.00,WeatherCatV1.10B1784,2013-04-02 01:40:00,
2013-04-01 21:45:00,50.3,37.4,30.03,SW,231,0.0,2.0,61,0.00,,,0.00,WeatherCatV1.10B1784,2013-04-02 01:45:00,
2013-04-01 21:50:00,50.3,37.0,30.03,South,189,0.0,3.0,60,0.00,,,0.00,WeatherCatV1.10B1784,2013-04-02 01:50:00,
2013-04-01 21:55:00,50.3,36.5,30.03,South,188,1.0,1.0,59,0.00,,,0.00,WeatherCatV1.10B1784,2013-04-02 01:55:00,
2013-04-01 22:00:00,50.2,36.4,30.04,South,190,1.0,3.0,59,0.00,,,0.00,WeatherCatV1.10B1784,2013-04-02 02:00:00,
2013-04-01 22:05:00,50.2,36.0,30.04,SSW,198,1.0,4.0,58,0.00,,,0.00,WeatherCatV1.10B1784,2013-04-02 02:05:00,
2013-04-01 22:19:00,50.1,35.9,30.04,SSW,202,1.0,2.0,58,0.00,,,0.00,WeatherCatV1.10B1784,2013-04-02 02:19:00,
2013-04-01 22:24:00,49.8,35.2,30.05,South,184,2.0,4.0,57,0.00,,,0.01,WeatherCatV1.10B1784,2013-04-02 02:24:00,
2013-04-01 22:29:00,49.7,34.6,30.05,NW,326,0.0,4.0,56,0.00,,,0.01,WeatherCatV1.10B1784,2013-04-02 02:29:00,
2013-04-01 22:34:00,49.6,34.6,30.05,South,187,0.0,2.0,56,0.00,,,0.01,WeatherCatV1.10B1784,2013-04-02 02:34:00,
2013-04-01 22:39:00,49.5,34.5,30.05,SSW,203,1.0,1.0,56,0.00,,,0.01,WeatherCatV1.10B1784,2013-04-02 02:39:00,
2013-04-01 22:44:00,49.2,34.2,30.05,South,190,2.0,2.0,56,0.00,,,0.01,WeatherCatV1.10B1784,2013-04-02 02:44:00,
2013-04-01 22:49:00,49.0,33.5,30.05,ESE,117,0.0,1.0,55,0.00,,,0.01,WeatherCatV1.10B1784,2013-04-02 02:49:00,
2013-04-01 22:54:00,49.0,34.0,30.05,South,175,0.0,2.0,56,0.00,,,0.01,WeatherCatV1.10B1784,2013-04-02 02:54:00,
2013-04-01 23:04:00,48.8,33.4,30.05,SW,227,0.0,0.0,55,0.00,,,0.01,WeatherCatV1.10B1784,2013-04-02 03:04:00,
2013-04-01 23:09:00,48.7,33.3,30.06,South,189,0.0,0.0,55,0.00,,,0.01,WeatherCatV1.10B1784,2013-04-02 03:09:00,
2013-04-01 23:14:00,48.5,33.5,30.05,WNW,294,0.0,1.0,56,0.00,,,0.01,WeatherCatV1.10B1784,2013-04-02 03:14:00,
2013-04-01 23:19:00,48.4,32.5,30.05,SE,136,1.0,2.0,54,0.00,,,0.01,WeatherCatV1.10B1784,2013-04-02 03:19:00,
2013-04-01 23:24:00,48.3,32.9,30.06,South,182,0.0,3.0,55,0.00,,,0.01,WeatherCatV1.10B1784,2013-04-02 03:24:00,
2013-04-01 23:29:00,48.1,33.2,30.06,South,184,2.0,3.0,56,0.00,,,0.01,WeatherCatV1.10B1784,2013-04-02 03:29:00,
2013-04-01 23:34:00,47.9,32.5,30.06,WSW,242,0.0,3.0,55,0.00,,,0.01,WeatherCatV1.10B1784,2013-04-02 03:34:00,
2013-04-01 23:39:00,47.7,31.9,30.06,ESE,119,2.0,4.0,54,0.00,,,0.01,WeatherCatV1.10B1784,2013-04-02 03:39:00,
2013-04-01 23:44:00,47.6,32.2,30.05,SSW,197,1.0,2.0,55,0.00,,,0.01,WeatherCatV1.10B1784,2013-04-02 03:44:00,
2013-04-01 23:49:00,47.4,32.5,30.05,South,186,0.0,3.0,56,0.00,,,0.01,WeatherCatV1.10B1784,2013-04-02 03:49:00,
2013-04-01 23:54:00,47.1,31.3,30.05,NE,54,1.0,5.0,54,0.00,,,0.01,WeatherCatV1.10B1784,2013-04-02 03:54:00,
2013-04-01 23:59:00,46.9,32.0,30.05,South,187,0.0,1.0,56,0.00,,,0.01,WeatherCatV1.10B1784,2013-04-02 03:59:00,